This demonstration page uses our WeatherBlox Daily Observations layout. Learn more.

Left ArrowRight Arrow

39.01783, -85.05884

Hourly Observations for April 21, 2020

Temp ( °F °C ) Dew Point ( °F °C ) Humidity (%) Winds ( mph kmh ) Pressure ( in mb ) Visibility ( mi km ) Precip ( " mm )
12:52 am 00:52 Mostly Cloudy 55 12.8 36 2.2 49 49 SSW 12 19 29.67 1005 10 16 N/A
1:52 am 01:52 Cloudy 56 13.3 35 1.7 46 46 SW 12 19 29.65 1004 10 16 N/A
2:52 am 02:52 Cloudy with Light Rain 53 11.7 40 4.4 61 61 WSW 8 13 29.65 1004 8 13 0.01 0.25
3:52 am 03:52 Cloudy 52 11.1 42 5.6 69 69 SW 8 13 29.62 1003 10 16 0.00 0.00
4:52 am 04:52 Mostly Cloudy 52 11.1 41 5 66 66 SW 8 13 29.61 1003 10 16 N/A
5:52 am 05:52 Cloudy 54 12.2 40 4.4 59 59 W 12 19 29.63 1004 10 16 N/A
6:52 am 06:52 Partly Cloudy 52 11.1 40 4.4 64 64 W 15 24 29.67 1005 10 16 N/A
7:52 am 07:52 Mostly Sunny 53 11.7 39 3.9 59 59 W 14 22 29.70 1006 10 16 N/A
8:52 am 08:52 Mostly Sunny 55 12.8 39 3.9 55 55 WNW 15 24 29.74 1007 10 16 N/A
9:52 am 09:52 Partly Cloudy 51 10.6 36 2.2 56 56 NNW 21 33 29.79 1009 10 16 N/A
10:52 am 10:52 Partly Cloudy 52 11.1 34 1.1 50 50 NW 18 30 29.82 1010 10 16 N/A
11:52 am 11:52 Mostly Sunny 53 11.7 29 -1.7 40 40 NNW 23 37 29.85 1011 10 16 N/A
12:52 pm 12:52 Mostly Sunny 55 12.8 28 -2.2 35 35 WNW 21 33 29.88 1012 10 16 N/A
1:52 pm 13:52 Partly Cloudy 55 12.8 26 -3.3 33 33 W 23 37 29.87 1012 10 16 N/A
2:52 pm 14:52 Mostly Sunny 55 12.8 17 -8.3 22 22 WNW 29 46 29.89 1012 10 16 N/A
3:52 pm 15:52 Sunny 55 12.8 20 -6.7 25 25 NW 20 31 29.91 1013 10 16 N/A
4:52 pm 16:52 Sunny 55 12.8 16 -8.9 21 21 WNW 22 35 29.92 1013 10 16 N/A
5:52 pm 17:52 Sunny 55 12.8 16 -8.9 21 21 WNW 17 28 29.93 1014 10 16 N/A
6:52 pm 18:52 Sunny 54 12.2 17 -8.3 23 23 WNW 21 33 29.95 1014 10 16 N/A
7:52 pm 19:52 Sunny 51 10.6 16 -8.9 25 25 NW 12 19 29.97 1015 10 16 N/A
8:52 pm 20:52 Clear 49 9.4 16 -8.9 27 27 NW 9 15 29.98 1015 10 16 N/A
9:52 pm 21:52 Clear 45 7.2 18 -7.8 34 34 W 3 6 30.00 1016 10 16 N/A
10:52 pm 22:52 Clear 45 7.2 20 -6.7 37 37 N N/A 30.01 1016 10 16 N/A
11:52 pm 23:52 Clear 43 6.1 20 -6.7 40 40 N N/A 30.01 1016 10 16 N/A

Powered by AerisWeather